NEPALISAT-1 (44331 NORAD) Tracking and Keplerian Element Data

This shows tracking and keplerian element data for the satellite.

Feedback or suggestion? Click here.




ElementValue
Catalog44331
NameNEPALISAT-1
Epoch Orbit13134
Epoch Day276.62883248
Epoch Year2021
RAAN77.4534
Inclination51.6158
Eccentricity0.0011442
Argument of Perigee302.2343
Mean Anonmoly57.757
Mean Motion16.30483242
Decay Rate0.04661449
L11 44331U 98067QG 21276.62883248 .04661449 12168-4 92832-3 0 9997
L22 44331 51.6158 77.4534 0011442 302.2343 57.7570 16.30483242131348



Live tracking and technical data element details for NEPALISAT-1 (NORAD 44331). NEPALISAT-1 can be tracked NOW for your location showing map with azimuth and elevation plus other details from your city location.







IsCatalogInMostPopularTable: catalog: 44331, numindb: 369
Update: records affected: 1



GetName: 44331 NEPALISAT-1

Hit Count: updated at: Sat, 06 Dec 2025 12:56:32 GMT